EW5239 Weather Reports


time (UTC)temp
C
wind
direction
speed
KPH
gust
KPH
rain 1hr
cm
rain 24hr
cm
rain mn
cm
humidity
%
barometer
mb
20260510065002 12 238 6.4 8.0 0.00 0.00 0.00 66 1017.5
20260510064506 13 222 8.0 11.3 0.00 0.00 0.00 68 1015.6
20260510064006 12 227 8.0 8.0 0.00 0.00 0.00 70 1015.6
20260510064003 12 247 6.4 8.0 0.00 0.00 0.00 69 1017.8
20260510063503 12 229 6.4 8.0 0.00 0.00 0.00 72 1017.9
20260510063005 12 220 6.4 8.0 0.00 0.00 0.00 76 1015.9
20260510063002 12 205 4.8 6.4 0.00 0.00 0.00 76 1017.8
20260510062506 12 228 6.4 8.0 0.00 0.00 0.00 79 1015.7
20260510062502 11 202 4.8 6.4 0.00 0.00 0.00 82 1017.9
20260510062006 12 237 6.4 8.0 0.00 0.00 0.00 82 1015.7
20260510062002 11 211 4.8 6.4 0.00 0.00 0.00 88 1017.7
20260510061506 12 268 6.4 8.0 0.00 0.00 0.00 85 1015.8
20260510061503 11 224 4.8 6.4 0.00 0.00 0.00 94 1017.7
20260510061006 12 255 4.8 8.0 0.00 0.00 0.00 88 1015.9
20260510061002 11 222 3.2 6.4 0.00 0.00 0.00 97 1018.1
20260510060505 11 226 3.2 3.2 0.00 0.00 0.00 92 1016.1
20260510060503 11 212 3.2 3.2 0.00 0.00 0.00 99 1017.8
20260510060008 10 203 3.2 3.2 0.00 0.00 0.00 99 1018.0
20260510060006 11 224 3.2 4.8 0.00 0.00 0.00 92 1016.0
20260510055503 10 229 3.2 3.2 0.00 0.00 0.00 99 1018.0
20260510055006 11 241 3.2 4.8 0.00 0.00 0.00 94 1016.0
20260510054506 11 236 1.6 4.8 0.00 0.00 0.00 96 1016.1
20260510054502 10 226 1.6 3.2 0.00 0.00 0.00 99 1018.1
20260510054003 9 212 0.0 3.2 0.00 0.00 0.00 99 1017.9
20260510053506 11 140 0.0 3.2 0.00 0.00 0.00 98 1015.9
20260510053503 9 155 0.0 3.2 0.00 0.00 0.00 99 1017.9
20260510053006 10 161 1.6 3.2 0.00 0.00 0.00 99 1015.6
20260510053002 8 168 1.6 3.2 0.00 0.00 0.00 99 1018.1
20260510052506 8 182 3.2 3.2 0.00 0.00 0.00 99 1015.9
20260510052005 8 194 3.2 3.2 0.00 0.00 0.00 99 1016.0
20260510052003 8 196 1.6 3.2 0.00 0.00 0.00 99 1018.1
20260510051506 7 202 3.2 3.2 0.00 0.00 0.00 97 1016.2
20260510051005 7 223 3.2 3.2 0.00 0.00 0.00 97 1016.0
20260510050506 7 229 1.6 4.8 0.00 0.00 0.00 97 1015.9
20260510050502 7 202 3.2 3.2 0.00 0.00 0.00 97 1018.1
20260510050006 6 201 0.0 4.8 0.00 0.00 0.00 98 1016.0
20260510045503 6 220 1.6 3.2 0.00 0.00 0.00 98 1018.3
20260510045006 6 0 0.0 0.0 0.00 0.00 0.00 99 1016.1
20260510045002 6 207 0.0 3.2 0.00 0.00 0.00 98 1018.3
20260510044506 5 0 0.0 0.0 0.00 0.00 0.00 99 1016.1
20260510044503 6 192 0.0 1.6 0.00 0.00 0.00 98 1018.3
20260510044006 5 0 0.0 0.0 0.00 0.00 0.00 99 1016.0
20260510044003 5 181 0.0 1.6 0.00 0.00 0.00 99 1018.5
20260510043506 5 0 0.0 0.0 0.00 0.00 0.00 99 1016.2
20260510043006 5 0 0.0 0.0 0.00 0.00 0.00 99 1016.3
20260510042506 4 0 0.0 0.0 0.00 0.00 0.00 99 1016.1
20260510042503 4 181 0.0 1.6 0.00 0.00 0.00 99 1018.5
20260510042007 3 0 0.0 0.0 0.00 0.00 0.00 99 1016.2
20260510042003 3 181 0.0 1.6 0.00 0.00 0.00 99 1018.4
20260510041506 3 0 0.0 0.0 0.00 0.00 0.00 99 1016.2
20260510041502 3 0 0.0 0.0 0.00 0.00 0.00 99 1018.6
20260510041006 3 0 0.0 0.0 0.00 0.00 0.00 99 1016.2
20260510041003 2 0 0.0 0.0 0.00 0.00 0.00 99 1018.7
20260510040506 3 0 0.0 0.0 0.00 0.00 0.00 99 1016.2
20260510040503 2 0 0.0 0.0 0.00 0.00 0.00 97 1018.8
20260510040011 2 0 0.0 0.0 0.00 0.00 0.00 97 1018.6
20260510040006 3 0 0.0 0.0 0.00 0.00 0.00 99 1016.0
20260510035505 3 0 0.0 0.0 0.00 0.00 0.00 99 1016.2
20260510035502 2 0 0.0 0.0 0.00 0.00 0.00 97 1018.7
20260510035006 3 0 0.0 0.0 0.00 0.00 0.00 99 1016.0
20260510034506 3 0 0.0 0.0 0.00 0.00 0.00 99 1016.0
20260510034503 2 0 0.0 0.0 0.00 0.00 0.00 97 1018.7
20260510034005 2 0 0.0 0.0 0.00 0.00 0.00 98 1016.1
20260510034002 2 0 0.0 0.0 0.00 0.00 0.00 97 1018.8
20260510033506 2 0 0.0 0.0 0.00 0.00 0.00 98 1016.2
20260510033006 2 0 0.0 0.0 0.00 0.00 0.00 98 1016.0
20260510033003 2 0 0.0 0.0 0.00 0.00 0.00 97 1018.6
20260510032505 3 0 0.0 0.0 0.00 0.00 0.00 98 1016.0
20260510032502 2 0 0.0 0.0 0.00 0.00 0.00 97 1018.6
20260510032006 3 0 0.0 0.0 0.00 0.00 0.00 98 1016.0
20260510032002 2 0 0.0 0.0 0.00 0.00 0.00 97 1018.6
20260510031506 3 0 0.0 0.0 0.00 0.00 0.00 98 1016.2
20260510031006 3 0 0.0 0.0 0.00 0.00 0.00 98 1016.2
20260510031003 2 0 0.0 0.0 0.00 0.00 0.00 97 1018.8
20260510030009 2 0 0.0 0.0 0.00 0.00 0.00 97 1018.8
20260510030006 3 0 0.0 0.0 0.00 0.00 0.00 98 1016.2
20260510025502 2 0 0.0 0.0 0.00 0.00 0.00 99 1018.8
20260510025006 3 0 0.0 0.0 0.00 0.00 0.00 98 1016.2
20260510025003 3 0 0.0 0.0 0.00 0.00 0.00 99 1018.9
20260510024506 3 0 0.0 0.0 0.00 0.00 0.00 97 1016.2
20260510024502 3 0 0.0 0.0 0.00 0.00 0.00 99 1018.9
20260510024006 3 0 0.0 0.0 0.00 0.00 0.00 97 1016.2
20260510024003 3 0 0.0 0.0 0.00 0.00 0.00 99 1018.8
20260510023506 4 0 0.0 0.0 0.00 0.00 0.00 97 1016.5
20260510023502 3 0 0.0 0.0 0.00 0.00 0.00 99 1019.1
20260510023003 3 0 0.0 0.0 0.00 0.00 0.00 99 1019.0
20260510022506 4 0 0.0 0.0 0.00 0.00 0.00 97 1016.4
20260510022503 3 0 0.0 0.0 0.00 0.00 0.00 99 1019.1
20260510022006 4 0 0.0 0.0 0.00 0.00 0.00 97 1016.4
20260510022002 3 0 0.0 0.0 0.00 0.00 0.00 99 1019.1
20260510021506 3 0 0.0 0.0 0.00 0.00 0.00 97 1016.5
20260510021503 3 0 0.0 0.0 0.00 0.00 0.00 99 1019.0
20260510020506 3 0 0.0 0.0 0.00 0.00 0.00 96 1016.5
20260510020502 3 0 0.0 0.0 0.00 0.00 0.00 99 1018.9
20260510020009 3 0 0.0 0.0 0.00 0.00 0.00 99 1019.1
20260510020006 3 0 0.0 0.0 0.00 0.00 0.00 96 1016.6
20260510015506 3 0 0.0 0.0 0.00 0.00 0.00 96 1016.6
20260510015502 3 0 0.0 0.0 0.00 0.00 0.00 99 1019.2
20260510015006 3 0 0.0 0.0 0.00 0.00 0.00 96 1016.5
20260510014505 3 0 0.0 0.0 0.00 0.00 0.00 96 1016.4
20260510014503 3 0 0.0 0.0 0.00 0.00 0.00 99 1018.9
20260510014006 4 0 0.0 0.0 0.00 0.00 0.00 96 1016.6
20260510014002 3 0 0.0 0.0 0.00 0.00 0.00 99 1018.9
20260510013506 4 0 0.0 0.0 0.00 0.00 0.00 96 1016.4
20260510013502 3 0 0.0 0.0 0.00 0.00 0.00 99 1018.9
20260510013003 3 0 0.0 0.0 0.00 0.00 0.00 99 1019.0
20260510012506 4 0 0.0 0.0 0.00 0.00 0.00 96 1016.3
20260510012502 3 0 0.0 0.0 0.00 0.00 0.00 99 1019.0
20260510012006 4 0 0.0 0.0 0.00 0.00 0.00 96 1016.4
20260510012003 3 0 0.0 0.0 0.00 0.00 0.00 99 1019.0
20260510011506 4 0 0.0 0.0 0.00 0.00 0.00 95 1016.4
20260510011005 4 0 0.0 0.0 0.00 0.00 0.00 95 1016.4
20260510011002 3 0 0.0 0.0 0.00 0.00 0.00 99 1018.9
20260510010506 4 0 0.0 0.0 0.00 0.00 0.00 95 1016.4
20260510010503 3 0 0.0 0.0 0.00 0.00 0.00 99 1018.9
20260510010009 3 0 0.0 0.0 0.00 0.00 0.00 99 1019.0
20260510005506 4 0 0.0 0.0 0.00 0.00 0.00 96 1016.5
20260510005503 3 0 0.0 0.0 0.00 0.00 0.00 98 1019.2
20260510005006 5 0 0.0 0.0 0.00 0.00 0.00 96 1016.7
20260510005002 4 0 0.0 0.0 0.00 0.00 0.00 98 1019.2
20260510004506 5 0 0.0 0.0 0.00 0.00 0.00 95 1016.5
20260510004502 4 0 0.0 0.0 0.00 0.00 0.00 98 1019.0
20260510004003 4 0 0.0 0.0 0.00 0.00 0.00 98 1019.1
20260510003505 5 0 0.0 0.0 0.00 0.00 0.00 95 1016.4
20260510003503 4 0 0.0 0.0 0.00 0.00 0.00 98 1019.1
20260510003006 5 0 0.0 0.0 0.00 0.00 0.00 95 1016.5
20260510003003 4 0 0.0 0.0 0.00 0.00 0.00 98 1018.9
20260510002506 5 0 0.0 0.0 0.00 0.00 0.00 94 1016.5
20260510002503 5 0 0.0 0.0 0.00 0.00 0.00 98 1019.1
20260510001506 5 0 0.0 0.0 0.00 0.00 0.00 94 1016.7
20260510001502 5 0 0.0 0.0 0.00 0.00 0.00 97 1019.5
20260510001006 5 0 0.0 0.0 0.00 0.00 0.00 94 1016.8
20260510001002 5 0 0.0 0.0 0.00 0.00 0.00 97 1019.1
20260510000505 5 0 0.0 0.0 0.00 0.00 0.00 94 1017.0
20260510000502 5 0 0.0 0.0 0.00 0.00 0.00 97 1019.3
20260510000009 5 0 0.0 0.0 0.00 0.00 0.00 97 1019.1
20260510000006 5 0 0.0 0.0 0.00 0.00 0.00 94 1016.8
20260509235506 5 0 0.0 0.0 0.00 0.00 0.00 94 1017.0
20260509235503 5 0 0.0 0.0 0.00 0.00 0.00 97 1019.3
20260509235006 6 0 0.0 0.0 0.00 0.00 0.00 94 1017.0
20260509235002 5 0 0.0 0.0 0.00 0.00 0.00 96 1019.5
20260509234506 6 0 0.0 0.0 0.00 0.00 0.00 93 1017.1
20260509234503 5 0 0.0 0.0 0.00 0.00 0.00 96 1019.2
20260509234006 6 0 0.0 0.0 0.00 0.00 0.00 93 1017.0
20260509234003 5 0 0.0 0.0 0.00 0.00 0.00 96 1019.5
20260509233506 6 0 0.0 0.0 0.00 0.00 0.00 93 1016.9
20260509233503 5 0 0.0 0.0 0.00 0.00 0.00 96 1019.3
20260509233006 6 0 0.0 0.0 0.00 0.00 0.00 93 1016.9
20260509232505 6 0 0.0 0.0 0.00 0.00 0.00 93 1016.9
20260509232006 6 0 0.0 0.0 0.00 0.00 0.00 93 1016.9
20260509231506 6 0 0.0 0.0 0.00 0.00 0.00 93 1017.2
20260509231503 5 0 0.0 0.0 0.00 0.00 0.00 96 1019.3
20260509231005 6 0 0.0 0.0 0.00 0.00 0.00 93 1017.0
20260509231003 6 0 0.0 0.0 0.00 0.00 0.00 95 1019.3
20260509230009 6 181 0.0 1.6 0.00 0.00 0.00 95 1019.6
20260509230006 6 0 0.0 0.0 0.00 0.00 0.00 93 1017.1
20260509225505 6 0 0.0 0.0 0.00 0.00 0.00 92 1017.1
20260509225003 6 181 0.0 1.6 0.00 0.00 0.00 95 1019.7
20260509224506 6 0 0.0 0.0 0.00 0.00 0.00 92 1017.1
20260509224002 6 0 0.0 0.0 0.00 0.00 0.00 94 1019.4
20260509223506 6 0 0.0 0.0 0.00 0.00 0.00 92 1017.2
20260509223503 6 0 0.0 0.0 0.00 0.00 0.00 94 1019.5
20260509223006 6 0 0.0 0.0 0.00 0.00 0.00 92 1017.2
20260509222505 6 0 0.0 0.0 0.00 0.00 0.00 92 1017.3
20260509222503 6 224 1.6 3.2 0.00 0.00 0.00 94 1019.7
20260509222006 7 0 0.0 0.0 0.00 0.00 0.00 92 1017.3
20260509222003 6 203 1.6 3.2 0.00 0.00 0.00 94 1019.6
20260509221506 6 0 0.0 0.0 0.00 0.00 0.00 92 1017.3
20260509221502 6 201 1.6 3.2 0.00 0.00 0.00 94 1019.8
20260509221002 6 225 1.6 1.6 0.00 0.00 0.00 94 1019.8
20260509220502 6 217 1.6 3.2 0.00 0.00 0.00 93 1019.8
20260509220010 6 214 1.6 3.2 0.00 0.00 0.00 93 1019.9
20260509220006 6 0 0.0 0.0 0.00 0.00 0.00 92 1017.3
20260509215506 6 0 0.0 0.0 0.00 0.00 0.00 90 1017.4
20260509215502 6 219 1.6 3.2 0.00 0.00 0.00 92 1019.6
20260509215006 6 0 0.0 0.0 0.00 0.00 0.00 90 1017.3
20260509215003 6 225 0.0 3.2 0.00 0.00 0.00 92 1019.9
20260509214505 6 0 0.0 0.0 0.00 0.00 0.00 90 1017.3
20260509214503 6 225 0.0 1.6 0.00 0.00 0.00 92 1019.6
20260509214006 7 0 0.0 0.0 0.00 0.00 0.00 89 1017.4
20260509213506 7 0 0.0 0.0 0.00 0.00 0.00 89 1017.5
20260509213503 6 0 0.0 0.0 0.00 0.00 0.00 92 1019.7
20260509213006 7 0 0.0 0.0 0.00 0.00 0.00 89 1017.3
20260509213003 6 169 0.0 1.6 0.00 0.00 0.00 92 1019.7
20260509212506 7 0 0.0 0.0 0.00 0.00 0.00 88 1017.5
20260509212003 6 0 0.0 0.0 0.00 0.00 0.00 91 1019.8
20260509211506 7 0 0.0 0.0 0.00 0.00 0.00 87 1017.4
20260509211502 6 0 0.0 0.0 0.00 0.00 0.00 91 1019.7
20260509211006 7 90 0.0 3.2 0.00 0.00 0.00 87 1017.4
20260509210506 7 90 0.0 3.2 0.00 0.00 0.00 87 1017.5
20260509210008 6 90 0.0 3.2 0.00 0.00 0.00 89 1019.8
20260509210005 7 90 0.0 3.2 0.00 0.00 0.00 86 1017.4
20260509205506 7 0 0.0 0.0 0.00 0.00 0.00 86 1017.5
20260509205503 6 0 0.0 0.0 0.00 0.00 0.00 88 1019.7
20260509205006 7 0 0.0 0.0 0.00 0.00 0.00 85 1017.5
20260509204505 7 0 0.0 0.0 0.00 0.00 0.00 84 1017.5
20260509204503 6 270 0.0 1.6 0.00 0.00 0.00 87 1019.9
20260509204006 7 0 0.0 0.0 0.00 0.00 0.00 84 1017.5
20260509203506 7 0 0.0 0.0 0.00 0.00 0.00 83 1017.5
20260509203502 7 0 0.0 0.0 0.00 0.00 0.00 84 1019.8
20260509203003 7 0 0.0 0.0 0.00 0.00 0.00 84 1019.5
20260509202506 7 181 1.6 3.2 0.00 0.00 0.00 82 1017.4
20260509202503 7 160 0.0 3.2 0.00 0.00 0.00 83 1019.6
20260509202006 7 181 1.6 3.2 0.00 0.00 0.00 82 1017.4
20260509201503 7 157 0.0 1.6 0.00 0.00 0.00 82 1019.5
20260509201006 8 0 0.0 0.0 0.00 0.00 0.00 81 1017.4
20260509201002 7 135 0.0 1.6 0.00 0.00 0.00 82 1019.8
20260509200506 8 0 0.0 0.0 0.00 0.00 0.00 80 1017.4
20260509200503 7 0 0.0 0.0 0.00 0.00 0.00 81 1019.6
20260509200008 8 0 0.0 0.0 0.00 0.00 0.00 80 1019.6
20260509200006 8 0 0.0 0.0 0.00 0.00 0.00 79 1017.5
20260509195506 8 0 0.0 0.0 0.00 0.00 0.00 79 1017.5
20260509195503 8 0 0.0 0.0 0.00 0.00 0.00 79 1019.5
20260509195006 9 0 0.0 0.0 0.00 0.00 0.00 77 1017.5
20260509195002 8 0 0.0 0.0 0.00 0.00 0.00 79 1019.8
20260509194506 9 0 0.0 0.0 0.00 0.00 0.00 76 1017.4
20260509194503 8 0 0.0 0.0 0.00 0.00 0.00 78 1019.6
20260509194006 9 181 0.0 1.6 0.00 0.00 0.00 76 1017.5
20260509194003 8 181 0.0 1.6 0.00 0.00 0.00 76 1019.6
20260509193506 10 181 0.0 1.6 0.00 0.00 0.00 76 1017.6
20260509193502 9 181 0.0 1.6 0.00 0.00 0.00 76 1019.7
20260509193006 10 211 1.6 3.2 0.00 0.00 0.00 75 1017.4
20260509193003 9 0 0.0 0.0 0.00 0.00 0.00 76 1019.6
20260509192505 10 222 1.6 3.2 0.00 0.00 0.00 75 1017.6
20260509192502 10 200 0.0 1.6 0.00 0.00 0.00 75 1019.7
20260509192006 10 210 3.2 4.8 0.00 0.00 0.00 75 1017.5
20260509191506 10 208 4.8 4.8 0.00 0.00 0.00 74 1017.5
20260509191503 10 205 3.2 4.8 0.00 0.00 0.00 74 1019.5
20260509191005 10 216 3.2 4.8 0.00 0.00 0.00 74 1017.5
20260509191003 10 212 3.2 4.8 0.00 0.00 0.00 73 1019.5
20260509190502 10 197 3.2 3.2 0.00 0.00 0.00 73 1019.4
20260509190009 11 184 4.8 8.0 0.00 0.00 0.00 73 1019.4
20260509190006 11 192 4.8 6.4 0.00 0.00 0.00 72 1017.4
20260509185506 11 173 4.8 8.0 0.00 0.00 0.00 72 1017.2
20260509185502 11 172 4.8 8.0 0.00 0.00 0.00 71 1019.4
20260509185006 11 174 4.8 8.0 0.00 0.00 0.00 70 1017.4
20260509185003 11 168 3.2 8.0 0.00 0.00 0.00 69 1019.2
20260509184506 11 205 3.2 3.2 0.00 0.00 0.00 69 1017.3
20260509184006 11 225 3.2 3.2 0.00 0.00 0.00 68 1017.3
20260509184002 11 221 1.6 3.2 0.00 0.00 0.00 67 1019.3
20260509183506 12 225 3.2 3.2 0.00 0.00 0.00 66 1017.3
20260509183503 11 225 1.6 3.2 0.00 0.00 0.00 66 1019.2
20260509183005 12 225 1.6 3.2 0.00 0.00 0.00 65 1017.2
20260509183003 12 225 0.0 1.6 0.00 0.00 0.00 64 1019.2
20260509182505 12 223 3.2 3.2 0.00 0.00 0.00 64 1017.1
20260509182502 12 202 1.6 3.2 0.00 0.00 0.00 64 1019.2
20260509182003 12 195 1.6 3.2 0.00 0.00 0.00 63 1019.2
20260509181506 13 214 3.2 4.8 0.00 0.00 0.00 64 1017.2
20260509181502 12 186 1.6 3.2 0.00 0.00 0.00 63 1019.3
20260509181005 13 221 3.2 4.8 0.00 0.00 0.00 63 1017.3
20260509180506 13 205 3.2 3.2 0.00 0.00 0.00 60 1017.1
20260509180503 13 184 3.2 3.2 0.00 0.00 0.00 61 1019.1
20260509180008 13 185 1.6 3.2 0.00 0.00 0.00 61 1019.2
20260509180006 13 192 3.2 3.2 0.00 0.00 0.00 60 1017.2
20260509175506 14 205 1.6 3.2 0.00 0.00 0.00 59 1017.1
20260509175503 13 184 0.0 3.2 0.00 0.00 0.00 60 1019.3
20260509175006 14 234 3.2 4.8 0.00 0.00 0.00 59 1017.1
20260509174505 15 257 3.2 4.8 0.00 0.00 0.00 58 1017.1
20260509174503 13 245 3.2 3.2 0.00 0.00 0.00 60 1019.1
20260509174006 15 268 4.8 6.4 0.00 0.00 0.00 56 1017.0
20260509174003 13 259 4.8 6.4 0.00 0.00 0.00 58 1019.3
20260509173502 13 266 4.8 6.4 0.00 0.00 0.00 58 1019.0
20260509173005 15 265 4.8 4.8 0.00 0.00 0.00 55 1017.0
20260509173003 13 279 3.2 4.8 0.00 0.00 0.00 56 1019.2
20260509172506 15 258 4.8 6.4 0.00 0.00 0.00 54 1017.1
20260509172502 14 277 4.8 6.4 0.00 0.00 0.00 55 1018.9
20260509172006 15 266 4.8 6.4 0.00 0.00 0.00 54 1017.1
20260509172002 14 281 4.8 6.4 0.00 0.00 0.00 55 1019.1
20260509171503 14 278 3.2 6.4 0.00 0.00 0.00 53 1019.0
20260509171005 16 268 3.2 4.8 0.00 0.00 0.00 52 1016.8
20260509171003 15 263 3.2 4.8 0.00 0.00 0.00 52 1018.7
20260509170506 16 257 3.2 4.8 0.00 0.00 0.00 52 1016.9
20260509170502 15 256 3.2 4.8 0.00 0.00 0.00 49 1019.0
20260509170008 15 261 3.2 3.2 0.00 0.00 0.00 50 1018.9
20260509165506 16 278 4.8 6.4 0.00 0.00 0.00 52 1017.0
20260509165502 16 274 3.2 6.4 0.00 0.00 0.00 51 1018.6
20260509165006 16 284 4.8 6.4 0.00 0.00 0.00 52 1017.0
20260509165003 16 280 3.2 6.4 0.00 0.00 0.00 49 1018.9
20260509164505 16 288 3.2 4.8 0.00 0.00 0.00 53 1017.0
20260509164503 16 299 3.2 6.4 0.00 0.00 0.00 49 1018.9
20260509164006 15 314 3.2 4.8 0.00 0.00 0.00 54 1017.1
20260509164002 16 321 3.2 6.4 0.00 0.00 0.00 51 1018.8
20260509163506 15 194 3.2 6.4 0.00 0.00 0.00 54 1017.1
20260509163502 15 173 3.2 6.4 0.00 0.00 0.00 52 1018.9
20260509163005 15 197 3.2 6.4 0.00 0.00 0.00 54 1017.1
20260509163003 15 174 3.2 6.4 0.00 0.00 0.00 50 1019.1
20260509162506 15 200 3.2 6.4 0.00 0.00 0.00 56 1017.0
20260509162006 15 148 4.8 6.4 0.00 0.00 0.00 56 1017.1
20260509162002 16 138 4.8 6.4 0.00 0.00 0.00 53 1018.9
20260509161505 15 135 3.2 6.4 0.00 0.00 0.00 57 1017.1
20260509161503 15 133 4.8 6.4 0.00 0.00 0.00 54 1019.1
20260509161006 15 144 4.8 8.0 0.00 0.00 0.00 57 1017.1
20260509161003 15 137 3.2 6.4 0.00 0.00 0.00 54 1019.1
20260509160505 14 136 4.8 8.0 0.00 0.00 0.00 57 1017.1
20260509160502 15 123 4.8 6.4 0.00 0.00 0.00 54 1019.2
20260509160009 15 111 3.2 6.4 0.00 0.00 0.00 54 1019.2
20260509160006 15 129 3.2 8.0 0.00 0.00 0.00 56 1017.4
20260509155506 15 165 1.6 4.8 0.00 0.00 0.00 55 1017.3
20260509155502 15 128 3.2 4.8 0.00 0.00 0.00 53 1019.4
20260509155005 15 142 1.6 4.8 0.00 0.00 0.00 55 1017.4
20260509155003 15 131 1.6 3.2 0.00 0.00 0.00 53 1019.4
20260509154506 15 174 3.2 4.8 0.00 0.00 0.00 55 1017.2
20260509154503 15 156 1.6 3.2 0.00 0.00 0.00 54 1019.3
20260509154006 15 206 3.2 6.4 0.00 0.00 0.00 55 1017.5
20260509154003 15 188 3.2 6.4 0.00 0.00 0.00 53 1019.2
20260509153505 15 185 4.8 6.4 0.00 0.00 0.00 55 1017.3
20260509153503 15 183 3.2 6.4 0.00 0.00 0.00 51 1019.4
20260509153006 15 114 4.8 8.0 0.00 0.00 0.00 56 1017.5
20260509153002 15 130 4.8 6.4 0.00 0.00 0.00 53 1019.2
20260509152506 15 124 6.4 8.0 0.00 0.00 0.00 56 1017.3
20260509152503 15 130 4.8 6.4 0.00 0.00 0.00 54 1019.5
20260509152006 15 168 4.8 8.0 0.00 0.00 0.00 56 1017.4
20260509152003 15 163 4.8 8.0 0.00 0.00 0.00 54 1019.2
20260509151506 15 136 4.8 9.7 0.00 0.00 0.00 57 1017.5
20260509151503 15 130 4.8 9.7 0.00 0.00 0.00 55 1019.4
20260509151006 14 100 8.0 11.3 0.00 0.00 0.00 57 1017.5
20260509151003 14 116 6.4 11.3 0.00 0.00 0.00 55 1019.4
20260509150505 14 95 4.8 11.3 0.00 0.00 0.00 58 1017.6
20260509150503 14 109 4.8 11.3 0.00 0.00 0.00 56 1019.4
20260509150009 14 87 3.2 6.4 0.00 0.00 0.00 55 1019.3
20260509150006 14 74 1.6 4.8 0.00 0.00 0.00 57 1017.5
20260509145505 14 41 3.2 6.4 0.00 0.00 0.00 57 1017.5
20260509145502 14 66 3.2 6.4 0.00 0.00 0.00 55 1019.4
20260509145005 14 303 4.8 6.4 0.00 0.00 0.00 58 1017.6
20260509145003 14 66 3.2 6.4 0.00 0.00 0.00 55 1019.5
20260509144506 14 212 3.2 6.4 0.00 0.00 0.00 58 1017.6
20260509144006 14 154 3.2 4.8 0.00 0.00 0.00 58 1017.6
20260509144002 14 147 3.2 4.8 0.00 0.00 0.00 55 1019.6
20260509143505 14 115 4.8 8.0 0.00 0.00 0.00 58 1017.5
20260509143502 14 129 3.2 6.4 0.00 0.00 0.00 56 1019.6
20260509143006 14 106 4.8 8.0 0.00 0.00 0.00 59 1017.5
20260509143003 14 106 4.8 6.4 0.00 0.00 0.00 56 1019.3
20260509142506 14 183 3.2 6.4 0.00 0.00 0.00 59 1017.7
20260509142503 14 106 3.2 6.4 0.00 0.00 0.00 56 1019.3
20260509142006 14 162 3.2 6.4 0.00 0.00 0.00 58 1017.7
20260509141502 14 85 4.8 6.4 0.00 0.00 0.00 56 1019.5
20260509141006 14 81 8.0 8.0 0.00 0.00 0.00 59 1017.7
20260509141002 14 21 4.8 6.4 0.00 0.00 0.00 57 1019.3
20260509140506 14 90 8.0 11.3 0.00 0.00 0.00 59 1017.7
20260509140503 14 62 6.4 9.7 0.00 0.00 0.00 57 1019.5
20260509140009 14 99 8.0 14.5 0.00 0.00 0.00 57 1019.6
20260509140006 14 97 9.7 14.5 0.00 0.00 0.00 59 1017.7
20260509135506 15 109 8.0 16.1 0.00 0.00 0.00 57 1017.7
20260509135503 14 108 8.0 14.5 0.00 0.00 0.00 57 1019.5
20260509135003 14 90 4.8 14.5 0.00 0.00 0.00 56 1019.5
20260509134506 15 330 6.4 12.9 0.00 0.00 0.00 59 1017.7
20260509134006 14 336 6.4 12.9 0.00 0.00 0.00 61 1017.8
20260509134003 14 30 6.4 12.9 0.00 0.00 0.00 57 1019.7
20260509133506 13 117 6.4 12.9 0.00 0.00 0.00 63 1017.8
20260509133503 14 84 6.4 12.9 0.00 0.00 0.00 58 1019.7
20260509133003 13 122 6.4 8.0 0.00 0.00 0.00 60 1019.5
20260509132506 13 150 4.8 6.4 0.00 0.00 0.00 65 1017.9
20260509132503 13 111 3.2 6.4 0.00 0.00 0.00 61 1019.7
20260509132006 13 311 4.8 8.0 0.00 0.00 0.00 65 1017.8
20260509132003 13 34 4.8 6.4 0.00 0.00 0.00 60 1019.9
20260509131502 13 59 6.4 9.7 0.00 0.00 0.00 63 1019.6
20260509131006 13 328 8.0 11.3 0.00 0.00 0.00 67 1018.1
20260509131002 13 50 6.4 9.7 0.00 0.00 0.00 65 1019.8
20260509130506 13 322 8.0 12.9 0.00 0.00 0.00 67 1018.0
20260509130503 13 57 8.0 12.9 0.00 0.00 0.00 65 1020.0
20260509130011 13 57 9.7 12.9 0.00 0.00 0.00 65 1019.9
20260509130005 13 330 9.7 12.9 0.00 0.00 0.00 67 1018.1
20260509125506 12 340 9.7 12.9 0.00 0.00 0.00 69 1018.1
20260509125503 12 60 9.7 12.9 0.00 0.00 0.00 65 1020.0
20260509125005 12 73 9.7 12.9 0.00 0.00 0.00 69 1018.0
20260509125003 12 82 8.0 12.9 0.00 0.00 0.00 66 1020.1
20260509124505 12 95 8.0 12.9 0.00 0.00 0.00 69 1018.2
20260509124502 12 62 8.0 12.9 0.00 0.00 0.00 66 1020.2
20260509124006 12 359 8.0 12.9 0.00 0.00 0.00 70 1018.2
20260509124003 12 44 6.4 12.9 0.00 0.00 0.00 65 1020.2
20260509123505 12 319 6.4 12.9 0.00 0.00 0.00 71 1018.3
20260509123502 12 38 4.8 11.3 0.00 0.00 0.00 65 1020.2
20260509123005 12 280 4.8 6.4 0.00 0.00 0.00 71 1018.4
20260509123003 12 264 4.8 6.4 0.00 0.00 0.00 65 1020.2
20260509122503 12 195 4.8 6.4 0.00 0.00 0.00 65 1020.2
20260509122003 13 137 4.8 6.4 0.00 0.00 0.00 66 1020.3
20260509121505 12 83 4.8 6.4 0.00 0.00 0.00 74 1018.3
20260509121503 13 129 3.2 6.4 0.00 0.00 0.00 72 1020.3
20260509121006 12 2 6.4 6.4 0.00 0.00 0.00 74 1018.4
20260509121003 12 116 3.2 6.4 0.00 0.00 0.00 73 1020.4
20260509120506 11 2 6.4 6.4 0.00 0.00 0.00 75 1018.5
20260509120502 11 59 4.8 6.4 0.00 0.00 0.00 73 1020.4
20260509120009 11 43 4.8 6.4 0.00 0.00 0.00 73 1020.4
20260509120006 11 27 4.8 6.4 0.00 0.00 0.00 75 1018.6
20260509115505 11 100 4.8 6.4 0.00 0.00 0.00 76 1018.5
20260509115503 12 97 4.8 6.4 0.00 0.00 0.00 73 1020.3
20260509115006 11 49 4.8 6.4 0.00 0.00 0.00 77 1018.5
20260509115003 11 82 4.8 6.4 0.00 0.00 0.00 75 1020.4
20260509114506 11 75 4.8 11.3 0.00 0.00 0.00 78 1018.4
20260509114503 11 90 4.8 11.3 0.00 0.00 0.00 76 1020.1
20260509114005 11 133 6.4 11.3 0.00 0.00 0.00 79 1018.5
20260509113506 11 327 6.4 9.7 0.00 0.00 0.00 80 1018.6
20260509113502 11 45 6.4 8.0 0.00 0.00 0.00 79 1020.5
20260509113005 11 350 6.4 9.7 0.00 0.00 0.00 81 1018.5
20260509113003 11 40 6.4 9.7 0.00 0.00 0.00 80 1020.4
20260509112505 11 349 8.0 11.3 0.00 0.00 0.00 81 1018.6
20260509112503 10 37 6.4 11.3 0.00 0.00 0.00 81 1020.6
20260509112006 11 340 9.7 12.9 0.00 0.00 0.00 82 1018.5
20260509112003 10 34 8.0 12.9 0.00 0.00 0.00 81 1020.5
20260509111505 10 348 8.0 12.9 0.00 0.00 0.00 83 1018.5
20260509111503 10 19 6.4 12.9 0.00 0.00 0.00 81 1020.5
20260509111005 10 345 8.0 11.3 0.00 0.00 0.00 83 1018.6
20260509111002 10 2 6.4 9.7 0.00 0.00 0.00 82 1020.7
20260509110506 10 340 8.0 11.3 0.00 0.00 0.00 83 1018.6
20260509110503 10 5 8.0 11.3 0.00 0.00 0.00 82 1020.7
20260509110009 10 35 9.7 14.5 0.00 0.00 0.00 82 1020.7
20260509110006 10 342 9.7 16.1 0.00 0.00 0.00 83 1018.7
20260509105506 10 345 11.3 16.1 0.00 0.00 0.00 83 1018.6
20260509105502 10 29 11.3 14.5 0.00 0.00 0.00 82 1020.6
20260509105006 10 338 11.3 16.1 0.00 0.00 0.00 83 1018.7
20260509104503 10 24 9.7 14.5 0.00 0.00 0.00 83 1020.7
20260509104006 10 330 11.3 14.5 0.00 0.00 0.00 84 1018.5
20260509104002 10 337 11.3 14.5 0.00 0.00 0.00 83 1020.7
20260509103506 10 343 11.3 14.5 0.00 0.00 0.00 84 1018.6
20260509103503 10 342 11.3 12.9 0.00 0.00 0.00 84 1020.6
20260509103005 10 347 8.0 14.5 0.00 0.00 0.00 84 1018.6
20260509102506 10 348 4.8 9.7 0.00 0.00 0.00 85 1018.6
20260509102503 10 356 4.8 12.9 0.00 0.00 0.00 85 1020.6
20260509102006 11 350 6.4 9.7 0.00 0.00 0.00 86 1018.6
20260509102003 10 347 4.8 8.0 0.00 0.00 0.00 85 1020.5
20260509101505 11 314 4.8 6.4 0.00 0.00 0.00 86 1018.6
20260509101502 10 4 4.8 6.4 0.00 0.00 0.00 86 1020.6
20260509101005 10 299 3.2 6.4 0.00 0.00 0.00 87 1018.5
20260509101003 10 343 6.4 8.0 0.00 0.00 0.00 87 1020.5
20260509100506 10 287 3.2 6.4 0.00 0.00 0.00 87 1018.7
20260509100006 10 308 4.8 6.4 0.00 0.00 0.00 87 1018.5
20260509095503 10 9 4.8 9.7 0.00 0.00 0.00 87 1020.6
20260509095006 10 349 6.4 9.7 0.00 0.00 0.00 87 1018.6
20260509095003 10 19 6.4 9.7 0.00 0.00 0.00 87 1020.7
20260509094505 10 358 6.4 11.3 0.00 0.00 0.00 86 1018.7
20260509094503 10 343 6.4 11.3 0.00 0.00 0.00 87 1020.6
20260509094006 10 327 6.4 11.3 0.00 0.00 0.00 86 1018.6
20260509094003 10 332 6.4 11.3 0.00 0.00 0.00 87 1020.9
20260509093506 10 321 6.4 11.3 0.00 0.00 0.00 85 1018.4
20260509093503 10 4 6.4 9.7 0.00 0.00 0.00 86 1020.7
20260509093005 10 318 8.0 9.7 0.00 0.00 0.00 85 1018.6
20260509093002 10 352 8.0 9.7 0.00 0.00 0.00 85 1020.7
20260509092506 10 331 8.0 11.3 0.00 0.00 0.00 85 1018.6
20260509092503 10 334 8.0 11.3 0.00 0.00 0.00 84 1020.6
20260509092003 10 339 8.0 11.3 0.00 0.00 0.00 84 1020.6
20260509091505 10 338 8.0 11.3 0.00 0.00 0.00 85 1018.7
20260509091502 10 349 8.0 11.3 0.00 0.00 0.00 84 1020.5
20260509091005 11 337 8.0 12.9 0.00 0.00 0.00 85 1018.5
20260509091003 10 16 8.0 12.9 0.00 0.00 0.00 84 1020.5
20260509090506 10 322 8.0 12.9 0.00 0.00 0.00 86 1018.4
20260509090503 10 13 6.4 12.9 0.00 0.00 0.00 85 1020.4
20260509090009 10 321 4.8 8.0 0.00 0.00 0.00 86 1020.3
20260509090006 10 306 4.8 8.0 0.00 0.00 0.00 86 1018.3
20260509085505 10 314 4.8 6.4 0.00 0.00 0.00 86 1018.4
20260509085503 10 301 4.8 6.4 0.00 0.00 0.00 86 1020.3
20260509085006 10 348 8.0 11.3 0.00 0.00 0.00 86 1018.3
20260509084505 10 341 6.4 11.3 0.00 0.00 0.00 86 1018.3
20260509084502 10 6 4.8 11.3 0.00 0.00 0.00 86 1020.2
20260509084003 10 27 4.8 8.0 0.00 0.00 0.00 86 1020.1
20260509083506 10 334 6.4 6.4 0.00 0.00 0.00 86 1018.3
20260509083502 10 358 6.4 8.0 0.00 0.00 0.00 86 1020.5
20260509083003 10 290 6.4 6.4 0.00 0.00 0.00 87 1020.3
20260509082502 10 288 6.4 8.0 0.00 0.00 0.00 87 1020.3
20260509082006 10 302 6.4 8.0 0.00 0.00 0.00 86 1018.1
20260509081503 10 347 6.4 8.0 0.00 0.00 0.00 86 1020.2
20260509081005 10 353 6.4 8.0 0.00 0.00 0.00 86 1018.2
20260509080505 10 354 4.8 6.4 0.00 0.00 0.00 86 1018.1
20260509080503 10 335 4.8 6.4 0.00 0.00 0.00 86 1020.1
20260509080009 10 352 6.4 9.7 0.00 0.00 0.00 87 1020.3
20260509080006 10 320 6.4 9.7 0.00 0.00 0.00 86 1018.2
20260509075505 10 304 6.4 9.7 0.00 0.00 0.00 87 1018.1
20260509075503 10 338 6.4 9.7 0.00 0.00 0.00 87 1020.1
20260509075005 10 301 4.8 8.0 0.00 0.00 0.00 86 1018.1
20260509075003 10 321 4.8 6.4 0.00 0.00 0.00 87 1020.2
20260509074506 10 303 4.8 6.4 0.00 0.00 0.00 86 1018.0
20260509074503 10 349 4.8 6.4 0.00 0.00 0.00 87 1020.4
20260509074005 10 298 3.2 8.0 0.00 0.00 0.00 87 1018.1
20260509074002 10 1 4.8 8.0 0.00 0.00 0.00 87 1020.4
20260509073505 10 323 4.8 8.0 0.00 0.00 0.00 87 1018.0
20260509073502 10 358 6.4 9.7 0.00 0.00 0.00 88 1020.3
20260509073006 10 337 6.4 8.0 0.00 0.00 0.00 87 1018.1
20260509072505 10 313 6.4 8.0 0.00 0.00 0.00 88 1018.1
20260509072503 9 326 4.8 6.4 0.00 0.00 0.00 88 1020.1
20260509072005 9 304 4.8 6.4 0.00 0.00 0.00 87 1018.0
20260509072003 9 324 4.8 6.4 0.00 0.00 0.00 88 1020.2
20260509071506 10 325 4.8 6.4 0.00 0.00 0.00 87 1018.0
20260509071502 9 321 4.8 9.7 0.00 0.00 0.00 88 1020.1
20260509071005 10 329 6.4 11.3 0.00 0.00 0.00 87 1017.8
20260509071003 9 333 4.8 9.7 0.00 0.00 0.00 88 1020.0
20260509070505 10 324 6.4 11.3 0.00 0.00 0.00 86 1017.8
20260509070008 9 2 3.2 6.4 0.00 0.00 0.00 88 1019.9
20260509070006 10 318 4.8 6.4 0.00 0.00 0.00 86 1017.8
20260509065505 10 311 4.8 6.4 0.00 0.00 0.00 86 1017.9